Weather History for EGPH - June, 2012

Change the Weather History Date:

Saturday, June 9, 2012

  Actual Average Record
Temperature  
Mean Temperature 58 °F -  
Max Temperature 64 °F 64 °F - ()
Min Temperature 53 °F 49 °F - ()
Degree Days  
Heating Degree Days 6    
Growing Degree Days 8 (Base 50)    
Moisture  
Dew Point 50 °F    
Average Humidity 79    
Maximum Humidity 100    
Minimum Humidity 63    
Precipitation  
Precipitation 0.00 in 0.07 in - ()
Sea Level Pressure  
Sea Level Pressure 29.63 in    
Wind  
Wind Speed 5 mph ()    
Max Wind Speed 9 mph    
Max Gust Speed -    
Visibility 5.9 miles    
Events Rain    
T = Trace of Precipitation, MM = Missing Value Source: Averaged Metar Reports

Daily Weather History Graph

Daily Weather History Graph

Search for Another Location

Airport or City:

Trip Planner

Search our weather history database for the weather conditions in past years. The results will help you decide how hot, cold, wet, or windy it might be!

Date:

Astronomy

Jun. 09, 2012 Rise Set
Actual Time 4:28 AM BST 9:57 PM BST
Civil Twilight 3:28 AM BST 10:57 PM BST
Nautical Twilight 1:45 AM BST 12:40 AM BST
Astronomical Twilight Sun does not rise Sun does not rise
Moon 12:25 AM BST (6/9) 10:51 AM BST (6/9)
Length of Visible Light 19h 29m
Length of Day
17h 28m
Waning Gibbous, 70% of the Moon is Illuminated
Jun 9
Waning Gibbous
Jun 11
Last Quarter
Jun 19
New
Jun 27
First Quarter
Jul 3
Full

Hourly Weather History & Observations

Time (BST) Temp. Dew Point Humidity Pressure Visibility Wind Dir Wind Speed Gust Speed Precip Events Conditions
12:20 AM 53.6 °F 50.0 °F 88% 29.47 in 6.2 mi North 3.5 mph - N/A   Mostly Cloudy
12:50 AM 53.6 °F 50.0 °F 88% 29.47 in 6.2 mi North 4.6 mph - N/A   Mostly Cloudy
1:20 AM 53.6 °F 50.0 °F 88% 29.47 in 6.2 mi Variable 3.5 mph - N/A   Mostly Cloudy
1:50 AM 53.6 °F 48.2 °F 82% 29.47 in 6.2 mi Variable 3.5 mph - N/A   Scattered Clouds
2:20 AM 53.6 °F 48.2 °F 82% 29.47 in 6.2 mi NNW 4.6 mph - N/A   Mostly Cloudy
2:50 AM 53.6 °F 48.2 °F 82% 29.50 in 6.2 mi NNW 4.6 mph - N/A   Overcast
3:20 AM 53.6 °F 48.2 °F 82% 29.50 in 6.2 mi NNW 4.6 mph - N/A   Mostly Cloudy
3:50 AM 53.6 °F 46.4 °F 77% 29.50 in 6.2 mi NNW 5.8 mph - N/A   Mostly Cloudy
4:20 AM 53.6 °F 48.2 °F 82% 29.53 in 6.2 mi North 5.8 mph - N/A   Mostly Cloudy
4:50 AM 53.6 °F 48.2 °F 82% 29.53 in 6.2 mi West 4.6 mph - N/A   Mostly Cloudy
5:20 AM 53.6 °F 48.2 °F 82% 29.53 in 6.2 mi WNW 4.6 mph - N/A   Mostly Cloudy
5:50 AM 53.6 °F 48.2 °F 82% 29.53 in 6.2 mi NW 4.6 mph - N/A   Mostly Cloudy
6:20 AM 53.6 °F 48.2 °F 82% 29.56 in 6.2 mi Variable 3.5 mph - N/A   Partly Cloudy
6:50 AM 53.6 °F 48.2 °F 82% 29.56 in - Variable 3.5 mph - N/A   Clear
7:20 AM 53.6 °F 48.2 °F 82% 29.56 in 6.2 mi WSW 4.6 mph - N/A   Partly Cloudy
7:50 AM 53.6 °F 50.0 °F 88% 29.59 in 6.2 mi WSW 5.8 mph - N/A   Partly Cloudy
8:20 AM 55.4 °F 50.0 °F 82% 29.59 in 6.2 mi Variable 3.5 mph - N/A   Partly Cloudy
8:50 AM 57.2 °F 50.0 °F 77% 29.59 in 6.2 mi Variable 3.5 mph - N/A   Partly Cloudy
9:20 AM 59.0 °F 50.0 °F 72% 29.62 in 6.2 mi NW 4.6 mph - N/A   Partly Cloudy
9:50 AM 59.0 °F 50.0 °F 72% 29.62 in 6.2 mi NNW 4.6 mph - N/A   Partly Cloudy
10:20 AM 59.0 °F 50.0 °F 72% 29.62 in 6.2 mi NNW 5.8 mph - N/A   Partly Cloudy
10:50 AM 60.8 °F 50.0 °F 68% 29.65 in 6.2 mi North 4.6 mph - N/A   Scattered Clouds
11:20 AM 60.8 °F 48.2 °F 63% 29.65 in 6.2 mi North 4.6 mph - N/A   Scattered Clouds
11:50 AM 60.8 °F 50.0 °F 68% 29.65 in 6.2 mi Variable 3.5 mph - N/A   Scattered Clouds
12:20 PM 62.6 °F 50.0 °F 63% 29.65 in 6.2 mi Variable 3.5 mph - N/A   Scattered Clouds
12:50 PM 62.6 °F 50.0 °F 63% 29.65 in 6.2 mi Variable 4.6 mph - N/A   Scattered Clouds
1:20 PM 62.6 °F 50.0 °F 63% 29.68 in 6.2 mi ENE 6.9 mph - N/A   Scattered Clouds
1:50 PM 59.0 °F 51.8 °F 77% 29.68 in 6.2 mi NE 8.1 mph - N/A   Scattered Clouds
2:20 PM 60.8 °F 50.0 °F 68% 29.68 in 6.2 mi East 4.6 mph - N/A   Mostly Cloudy
2:50 PM 60.8 °F 50.0 °F 68% 29.68 in 6.2 mi Variable 3.5 mph - N/A   Scattered Clouds
3:20 PM 62.6 °F 50.0 °F 63% 29.68 in 6.2 mi NE 8.1 mph - N/A   Scattered Clouds
3:50 PM 64.4 °F 51.8 °F 64% 29.68 in 6.2 mi ENE 8.1 mph - N/A   Scattered Clouds
4:20 PM 62.6 °F 51.8 °F 68% 29.68 in 6.2 mi ENE 9.2 mph - N/A   Scattered Clouds
4:50 PM 60.8 °F 51.8 °F 72% 29.68 in 6.2 mi NE 9.2 mph - N/A   Scattered Clouds
5:20 PM 59.0 °F 51.8 °F 77% 29.68 in 6.2 mi NE 6.9 mph - N/A   Scattered Clouds
5:50 PM 57.2 °F 51.8 °F 82% 29.71 in 6.2 mi NE 8.1 mph - N/A Rain Light Rain
6:20 PM 59.0 °F 53.6 °F 82% 29.71 in 6.2 mi Variable 4.6 mph - N/A   Mostly Cloudy
6:50 PM 60.8 °F 51.8 °F 72% 29.71 in 6.2 mi ESE 5.8 mph - N/A   Mostly Cloudy
7:20 PM 59.0 °F 51.8 °F 77% 29.71 in 6.2 mi ESE 4.6 mph - N/A   Scattered Clouds
7:50 PM 59.0 °F 51.8 °F 77% 29.71 in 6.2 mi SSE 4.6 mph - N/A   Mostly Cloudy
8:20 PM 57.2 °F 53.6 °F 88% 29.74 in 5.0 mi SW 6.9 mph - N/A Rain Rain
8:50 PM 55.4 °F 53.6 °F 94% 29.74 in 6.2 mi Variable 2.3 mph - N/A Rain Light Rain
9:20 PM 55.4 °F 53.6 °F 94% 29.74 in 3.1 mi ENE 3.5 mph - N/A Rain Rain
9:50 PM 55.4 °F 53.6 °F 94% 29.74 in 2.2 mi SE 4.6 mph - N/A Rain Rain
10:20 PM 55.4 °F 53.6 °F 94% 29.74 in 1.5 mi SW 4.6 mph - N/A Rain Heavy Rain Showers
10:50 PM 53.6 °F 53.6 °F 100% 29.74 in 3.7 mi SW 8.1 mph - N/A Rain Rain
11:20 PM 53.6 °F 51.8 °F 94% 29.77 in 6.2 mi WSW 9.2 mph - N/A Rain Light Rain
11:50 PM 53.6 °F 51.8 °F 94% 29.77 in 5.6 mi WSW 9.2 mph - N/A Rain Light Rain